カタログに戻る

RS-38S

運用中アマチュア無線SSO
NORAD 57189·PAYLOAD·🇷🇺 Russia

打ち上げ Jun 27, 2023 から Vostochny Cosmodrome

Loading…

次のパス (今後24時間)

TLE

最新Source: AMSAT

元期: Sep 14, 2026, 10:49 UTC

1 57189U 23091Z   26257.45087763  .00014103  00000-0  37159-3 0  9994
2 57189  97.5006 328.8549 0008088 109.5644 250.6475 15.38602116178403

AllMySatでRS-38Sをリアルタイム追跡

Download on the App Store